カタログに戻る

FTV 3502

運用中軍事PO
NORAD 369·PAYLOAD·🇺🇸 United States

打ち上げ Aug 23, 1962 から Vandenberg Space Force Base

Loading…

次のパス (今後24時間)

TLE

最新Source: Space-Track

元期: Sep 14, 2026, 14:12 UTC

1 00369U 62039A   26257.59187151  .00001444  00000-0  13925-3 0  9993
2 00369  98.4555 348.5202 0078189 195.6362 164.2440 14.92494309428948

AllMySatでFTV 3502をリアルタイム追跡

Download on the App Store